Location: Kropst�dt
(51.9631°N, 12.7455°E)
Time: 19:19:07
(UTC+00:00)

Daily predictions for brighter satellites

Satellite Brightness Start Highest point End
(mag) Time Altitude Azimuth Time Altitude Azimuth Time Altitude Azimuth
Cosmos 2221 3.7 15:58:19 10° SE 16:01:40 23° E 16:05:03 10° NE
Cosmos 2369 Rocket 2.5 15:57:06 10° SW 16:02:41 69° WNW 16:08:18 10° NNE
PSLV R/B 4.2 15:58:44 10° NNE 16:02:53 52° E 16:07:00 10° S
Cosmos 1689 Rocket 2.8 16:01:15 10° N 16:04:15 58° WNW 16:07:14 10° SSW
GEOS 3 Rocket 4.1 16:01:54 10° NE 16:06:57 47° SE 16:12:00 10° SSW
Cosmos 841 Rocket 4.1 16:02:45 10° SW 16:07:58 59° WNW 16:13:13 10° NNE
NOAA 12 4.4 16:04:46 10° SE 16:09:50 46° ENE 16:14:56 10° N
Cosmos 2123 Rocket 4.1 16:04:19 10° SSE 16:10:21 55° E 16:16:23 10° NNE
Aureole 2 Rocket 2.4 16:08:13 10° SSW 16:11:30 64° ESE 16:14:59 10° NNE
Cosmos-2242 3.3 16:08:53 10° SSW 16:13:09 72° WNW 16:17:26 10° N
Okean O Rocket 3.0 16:09:12 10° S 16:13:25 44° W 16:17:38 10° NNW
Cosmos 1743 Rocket 3.7 16:09:20 10° N 16:13:34 49° ENE 16:17:47 10° SSE
Cosmos 1725 Rocket 4.0 16:08:27 10° N 16:14:49 77° ENE 16:21:09 10° SSE
CZ-3B R/B 3.4 16:12:59 10° SSW 16:14:59 31° SE 16:17:48 11° ENE
SeaSat 1 2.4 16:10:53 10° SE 16:15:49 80° ENE 16:20:47 10° NNW
Cosmos 2227 Rocket 2.8 16:11:12 10° NNW 16:16:24 35° NE 16:21:34 10° ESE
Cosmos 2297 Rocket 2.7 16:12:02 10° NNW 16:17:18 37° NE 16:22:33 10° ESE
Cosmos 2016 Rocket 4.2 16:15:03 10° NNW 16:21:27 82° W 16:27:50 10° S
CSL-04 Rocket 4.4 16:17:17 10° ESE 16:21:54 30° ENE 16:26:28 10° N
Ariane Rocket 4.4 16:22:22 10° E 16:25:42 18° NE 16:29:02 10° NNE
Feng Yun 1-1 Rocket 4.4 16:20:39 10° SSE 16:26:19 85° WSW 16:31:52 10° NNW
Cosmos 1455 2.2 16:23:06 10° S 16:26:54 87° WNW 16:30:41 10° N
CORIOLIS 4.2 16:28:45 10° SSE 16:34:09 88° ENE 16:39:38 10° NNW
TELKOM 3 3.6 16:32:23 10° W 16:34:29 43° S 16:35:51 17° ESE
Cosmos 1437 2.7 16:31:28 10° NNW 16:34:34 81° WSW 16:37:38 10° S
Meteor 2-3 Rocket 3.7 16:29:09 10° N 16:35:00 78° ENE 16:40:48 10° SSE
CENTAUR R/B 3.7 16:28:53 10° W 16:35:06 39° NNW 16:42:04 11° NE
Cosmos 1408 Rocket 4.3 16:31:21 10° NNW 16:35:40 57° W 16:40:01 10° S
H-2A R/B 2.8 16:32:15 10° SSE 16:36:07 86° WSW 16:40:00 10° NNW
Cosmos 1500 Rocket 3.5 16:35:19 10° N 16:39:46 79° E 16:44:08 10° SSE
ASTEX 1 3.8 16:35:02 10° N 16:40:02 71° W 16:45:01 10° SSW
SL-24 R/B - RUBIN 2 4.5 16:34:12 10° NW 16:40:25 86° NE 16:47:05 10° SE
Cosmos 2082 4.3 16:35:57 10° NNW 16:41:06 35° NE 16:45:37 13° ESE
TSX-5 4.4 16:37:41 10° S 16:41:25 44° ESE 16:45:35 13° NE
Cosmos 1633 3.8 16:39:45 10° NNE 16:42:38 21° ENE 16:43:40 19° E
Cosmos 2263 Rocket 3.8 16:42:47 10° NNW 16:46:06 16° NNE 16:48:01 14° NE
Cosmos 1633 Rocket 4.1 16:43:14 10° NNE 16:46:47 24° ENE 16:49:06 16° ESE
NOSS 5 (C) 4.3 16:44:33 10° SW 16:48:20 80° SE 16:50:16 22° NE
COSMO-SKYMED 1 3.2 16:44:32 10° NNE 16:48:31 33° E 16:52:27 10° SSE
ATLAS 3B R/B 3.7 16:42:52 10° W 16:48:55 35° NNW 16:54:29 12° NE
Cosmos 1943 Rocket 3.6 16:44:25 10° WSW 16:49:31 34° NW 16:54:41 10° NNE
Cosmos 1607 3.9 16:47:59 10° NW 16:54:12 72° NE 17:00:26 10° SE
Genesis I 4.4 16:51:14 10° S 16:54:31 25° ESE 16:55:22 23° E
Cosmos 1666 Rocket 4.2 16:50:42 10° N 16:54:41 31° ENE 16:58:36 10° SE
YAOGAN 6 2.6 16:51:30 10° SSE 16:54:55 50° ENE 16:58:19 10° N
Cosmos 783 Rocket 4.5 16:53:41 10° SSW 16:58:56 67° ESE 17:04:14 10° NNE
CZ-4 R/B 1.4 16:55:47 10° SSE 16:59:54 58° ENE 17:03:58 10° N
Meteor 2-10 Rocket 3.7 16:56:49 10° SSW 17:01:49 69° WNW 17:06:52 10° N
Sich 1 3.1 17:02:15 10° N 17:06:29 51° ENE 17:10:43 10° SSE
Cosmos 1340 Rocket 4.2 17:04:32 10° SW 17:08:21 40° WNW 17:12:13 10° N
ATLAS 5 CENTAUR R/B 2.2 17:06:09 10° NW 17:11:43 81° NE 17:17:35 13° SE
Cosmos 2278 Rocket 4.5 17:11:10 10° NNW 17:13:03 12° N 17:14:57 10° N
Okean-O 3.5 17:09:54 10° S 17:14:14 52° W 17:18:35 10° NNW
Cosmos 1869 3.2 17:15:11 10° S 17:19:05 59° E 17:21:50 18° NNE
Envisat 3.4 17:16:09 10° S 17:21:12 64° WSW 17:26:16 10° NNW
Cosmos 1939 Rocket 3.2 17:20:29 35° ESE 17:21:38 44° ENE 17:25:36 10° N
COBE Rocket 4.0 17:17:16 10° N 17:22:11 73° WNW 17:26:56 10° SSW
YAOGAN 1 2.4 17:18:30 10° SSE 17:22:49 77° ENE 17:27:10 10° NNW
Cosmos 2084 3.9 17:18:45 10° NW 17:23:02 60° SW 17:26:27 15° SSE
Cosmos 1238 Rocket 4.2 17:18:09 10° NNW 17:23:06 49° W 17:27:07 10° SSW
USA 215 3.2 17:18:27 19° ESE 17:23:25 88° SSW 17:30:01 10° WNW
BREEZE-M DEB (TANK) 2.7 17:19:31 10° WSW 17:27:20 62° S 17:28:18 43° ESE
NOAA 11 4.1 17:24:51 10° SSE 17:30:12 64° ENE 17:35:35 10° N
CZ-2D R/B 3.3 17:29:45 51° ESE 17:30:17 56° ENE 17:34:08 10° N
USA 229 DEB 3.9 17:24:16 10° S 17:30:27 44° ESE 17:32:54 32° ENE
USA 229 4.0 17:24:26 10° S 17:30:34 44° ESE 17:32:57 32° ENE
Meteor 2-11 Rocket 4.4 17:27:57 10° N 17:33:59 58° ENE 17:40:00 10° SSE
Cosmos 2219 3.9 17:29:52 10° NW 17:35:22 55° WSW 17:40:49 10° S
ARGOS 4.5 17:37:02 23° NE 17:37:02 23° NE 17:39:59 10° N
NOSS 3-1 (A) 4.3 17:31:15 10° S 17:34:58 26° SE 17:34:58 26° SE
SKYMED 2 3.5 17:32:25 10° NNE 17:36:49 88° W 17:41:10 10° SSW
NOSS 3-1 (C) 3.7 17:33:02 10° S 17:38:16 42° ESE 17:39:15 39° E
CSL-04 Debris 4.3 17:33:14 10° SSE 17:38:44 80° WSW 17:44:16 10° NNW
Cosmos 2221 3.6 17:34:50 10° SSW 17:38:59 45° WNW 17:43:10 10° N
TRAILBLAZER 4.5 17:35:47 10° NW 17:40:28 81° NE 17:41:38 50° SE
Meteor 2-2 Rocket 4.4 17:34:42 10° SSW 17:40:36 80° WNW 17:46:26 10° NNE
GEOS 3 Rocket 4.3 17:41:57 23° NNE 17:45:02 51° NW 17:50:06 10° WSW
USA 116 3.9 17:43:40 35° NNE 17:45:26 76° ESE 17:50:11 10° S
Cosmos 2369 Rocket 4.3 17:43:39 10° W 17:47:47 20° NNW 17:51:55 10° NNE
Cosmos 1656 3.7 17:43:55 10° S 17:49:16 51° ESE 17:49:35 50° E
Cosmos 1464 Rocket 4.0 17:43:21 10° NNW 17:49:35 84° W 17:55:43 10° S
Cosmos 1867 3.6 17:45:33 10° SW 17:51:02 82° NW 17:53:12 38° NE
H-2A R/B 3.3 17:52:52 28° NNE 17:52:52 28° NNE 17:56:01 10° N
Cosmos 2344 3.9 17:44:07 10° WSW 17:51:37 68° NW 17:57:45 21° NE
Cosmos 397 4.3 17:50:16 10° NW 17:54:24 75° NNE 17:54:24 75° NNE
IRS-1A Rocket 4.1 17:54:36 34° SE 17:57:07 72° ENE 18:02:49 10° NNW
Cosmos 2227 Rocket 2.8 17:55:12 10° NW 18:00:46 56° WSW 18:06:16 10° S
Cosmos 1862 3.4 17:56:51 10° NNW 18:00:49 71° W 18:00:56 71° WSW
Cosmos 2297 Rocket 2.9 17:56:06 10° NW 18:01:35 52° WSW 18:07:01 10° S
CSL-04 Rocket 4.3 17:56:44 10° S 18:02:00 54° W 18:07:14 10° NNW
Ariane Rocket 2.9 18:02:08 41° SSE 18:03:59 87° ENE 18:09:07 10° NNW
Cosmos 1356 Rocket 3.9 18:04:17 10° SSW 18:08:22 60° WNW 18:09:21 45° NNW
CZ-3B R/B 4.2 18:05:37 10° W 18:07:30 40° WNW 18:07:30 40° WNW
Cosmos 1633 4.1 18:14:14 10° NNW 18:17:36 35° W 18:17:56 35° WSW
Cosmos 2056 Rocket 4.0 18:13:55 10° NNW 18:17:40 46° N 18:17:40 46° N
USA 238 DEB 4.4 18:13:04 10° NW 18:19:37 39° NNE 18:20:28 38° NE
Cosmos 1624 Rocket 4.3 18:14:17 10° NNW 18:18:36 54° N 18:18:36 54° N
USA 238 4.4 18:13:10 10° NW 18:19:43 39° NNE 18:20:34 38° NE
COSMO-SKYMED 1 4.2 18:20:46 10° N 18:24:40 33° WNW 18:28:34 10° SW
Cosmos 1633 Rocket 4.0 18:20:37 10° NNW 18:24:50 46° W 18:26:17 33° SW
Cosmos 2082 4.2 18:20:00 10° NW 18:25:30 57° WSW 18:27:33 36° S
CENTAUR R/B 3.8 18:21:06 10° NW 18:27:41 36° N 18:29:14 33° NNE
NOSS 3-2 (A) 4.5 18:22:26 10° NW 18:28:56 40° NNE 18:29:34 40° NNE
Cosmos 2263 Rocket 3.2 18:26:10 10° NNW 18:29:43 34° N 18:29:43 34° N
Cosmos 724 4.2 18:28:17 10° NW 18:34:06 81° WSW 18:34:06 81° WSW
CZ-4 R/B 4.2 18:32:22 10° SW 18:35:16 18° W 18:38:09 10° NW
Cosmos 1932 4.4 18:30:38 10° NW 18:37:13 87° SW 18:37:29 82° SSE
ATLAS 3B R/B 3.7 18:35:33 10° NW 18:41:23 31° N 18:41:44 31° NNE
Cosmos 1697 Rocket 4.2 18:39:21 10° SSW 18:41:38 25° SSW 18:41:38 25° SSW
MOS 1 4.5 18:46:35 67° WSW 18:46:37 67° WSW 18:52:16 10° NNW
ATLAS 5 CENTAUR R/B 4.0 18:51:14 10° WNW 18:56:08 28° WSW 18:59:13 19° SSW
USA 215 4.3 19:05:50 34° SSW 19:06:57 37° SW 19:12:57 10° WNW
USA 229 DEB 4.1 19:14:39 10° WSW 19:20:22 56° WNW 19:20:22 56° WNW
USA 229 4.1 19:14:47 10° WSW 19:20:25 56° WNW 19:20:25 56° WNW
H-2A R/B 4.1 19:33:30 24° NW 19:33:30 24° NW 19:35:45 10° NNW
CENTAUR R/B 4.2 20:12:19 10° NW 20:16:25 35° NNW 20:16:25 35° NNW
